Regional Weather Roundup
Issued by NWS Bismarck, ND

Home | Current Version | Previous Version | Text Only | Print | Product List | Glossary On
Versions: 1 2 3 4 5 6 7 8 9 10 11 12 13 14 15 16 17 18 19 20 21 22 23 24 25 26 27 28 29 30 31 32 33 34 35 36 37 38 39 40 41 42 43 44 45 46 47 48 49 50
000
ASUS43 KBIS 230220
RWRBIS

NWR BROADCAST TEXT
NATIONAL WEATHER SERVICE BISMARCK ND
900 PM CDT FRI MAY 22 2015

NOTE: "FAIR" INDICATES FEW OR NO CLOUDS BELOW 12,000 FEET WITH NO
SIGNIFICANT WEATHER AND/OR OBSTRUCTIONS TO VISIBILITY.


CITY           SKY/WX    TMP DP  RH WIND       PRES   REMARKS
WILLISTON      PTCLDY    71  31  22 SE12      30.03S
MINOT          PTCLDY    68  36  30 SE6       30.06S
MINOT AFB      PTCLDY    71  37  29 S6        30.05S
BISMARCK       CLOUDY    66  41  40 S9        30.08R
DICKINSON      MOCLDY    60  37  42 SE10      30.05R
GARRISON         N/A     65  40  39 S5        30.07S
HETTINGER ARPT MOCLDY    59  35  40 SE14      30.07R
JAMESTOWN      PTCLDY    61  43  51 SE7       30.10S
BEACH          FAIR      63  37  39 SE12      30.04R
CARRINGTON     FAIR      64  41  42 SE9       30.12S
CROSBY         FAIR      66  36  32 SE9       30.06R
HARVEY         FAIR      66  37  34 S8        30.09S
HAZEN          FAIR      63  41  45 SE8       30.07S
LINTON         FAIR      61  45  55 S9        30.10R
MANDAN         FAIR      61  41  48 S7        30.09S
OAKES            N/A     64  43  45 E10       30.11R
STANLEY        FAIR      63  37  39 SE8       30.08S
TIOGA          FAIR      63  32  31 SE9       30.10R
WATFORD CITY   FAIR      66  32  28 SE10      30.03R
$$

CITY           SKY/WX    TMP DP  RH WIND       PRES   REMARKS
GRAND FORKS    PTCLDY    63  44  50 S8        30.10S
GRAND FORKS AF CLEAR     64  43  46 S7        30.11R
DEVILS LAKE    CLEAR     64  34  32 S9        30.10S
FARGO          PTCLDY    69  40  34 SE6       30.12S
CANDO          FAIR      63  37  39 SE9       30.10S
CAVALIER       FAIR      72  39  30 SW3       30.08S
GRAFTON        FAIR      63  48  59 S8        30.10S
LANGDON        FAIR      63  37  39 S8        30.12S
ROLLA          FAIR      66  32  28 S9        30.11S
WALHALLA       FAIR      72  36  26 SW6       30.08S
$$

CITY           SKY/WX    TMP DP  RH WIND       PRES   REMARKS
ABERDEEN       CLOUDY    67  41  38 SW13      30.11R
MOBRIDGE       MOCLDY    64  40  41 S10       30.08R
BUFFALO          N/A     58  38  47 SE20      29.99R
RAPID CITY     CLOUDY    52  41  66 SE10      30.08R
GLASGOW        PTCLDY    68  42  38 E9        29.96S
SIDNEY         MOCLDY    66  34  30 SE8       30.02R
WOLF POINT     MOCLDY    69  41  36 SE6       29.98R
GLENDIVE       MOCLDY    64  39  39 SE10      30.01R
MILES CITY     CLOUDY    65  43  44 SE10      29.96R
BAKER          MOCLDY    61  42  49 SE15      30.03R
$$

CITY           SKY/WX    TMP DP  RH WIND       PRES   REMARKS
BILLINGS       CLOUDY    64  45  49 SE13      29.90S
GREAT FALLS    MOCLDY    62  47  57 E7        29.92S
REGINA         PTCLDY    66  37  34 SE8       30.03S
ESTEVAN        PTCLDY    66  39  37 S7        30.06R
$$



USA.gov is the U.S. government's official web portal to all federal, state and local government web resources and services.